Lumberton, NC

1:53 PM EDT on July 22, 2017 (GMT -0400)
Lumberton Municipal

Weather History for KLBT - September, 2013

Change the Weather History Date:

Tuesday, September 17, 2013

  Actual Average Record
Temperature  
Mean Temperature 72 °F 73 °F  
Max Temperature 81 °F 84 °F 96 °F (2005)
Min Temperature 62 °F 62 °F 46 °F (2000)
Degree Days  
Heating Degree Days 0 0  
Month to date heating degree days 0 0  
Since 1 July heating degree days 0 0  
Cooling Degree Days 7 8  
Month to date cooling degree days 213 167  
Year to date cooling degree days 1724 1739  
Growing Degree Days 23 (Base 50)    
Moisture  
Dew Point 55 °F    
Average Humidity 54    
Maximum Humidity 73    
Minimum Humidity 35    
Precipitation  
Precipitation 0.00 in 0.15 in 0.51 in (2004)
Month to date precipitation 0.89 2.80  
Year to date precipitation 36.87 33.19  
Sea Level Pressure  
Sea Level Pressure 30.22 in    
Wind  
Wind Speed 9 mph (NE)    
Max Wind Speed 17 mph    
Max Gust Speed 23 mph    
Visibility 10 miles    
Events      
T = Trace of Precipitation, MM = Missing Value Source: NWS Daily Summary

Daily Weather History Graph

Daily Weather History Graph

Search for Another Location

Airport or City:

Trip Planner

Search our weather history database for the weather conditions in past years. The results will help you decide how hot, cold, wet, or windy it might be!

Date:

Astronomy

Sep. 17, 2013 Rise Set
Actual Time 7:00 AM EDT 7:19 PM EDT
Civil Twilight 6:35 AM EDT 7:44 PM EDT
Nautical Twilight 6:06 AM EDT 8:14 PM EDT
Astronomical Twilight 5:36 AM EDT 8:44 PM EDT
Moon 6:03 PM EDT (9/17) 4:57 AM EDT (9/17)
Length of Visible Light 13h 09m
Length of Day
12h 18m
Waxing Gibbous, 96% of the Moon is Illuminated
Sep 17
Waxing Gibbous
Sep 19
Full
Sep 26
Last Quarter
Oct 4
New
Oct 11
First Quarter

Hourly Weather History & Observations

Time (EDT) Temp. Dew Point Humidity Pressure Visibility Wind Dir Wind Speed Gust Speed Precip Events Conditions
12:54 AM 73.0 °F 62.1 °F 68% 30.15 in 10.0 mi NE 11.5 mph - N/A   Scattered Clouds
1:54 AM 71.1 °F 61.0 °F 70% 30.16 in 10.0 mi ENE 9.2 mph 18.4 mph N/A   Partly Cloudy
2:54 AM 69.1 °F 61.0 °F 75% 30.16 in 10.0 mi NE 8.1 mph - N/A   Clear
3:54 AM 69.1 °F 57.0 °F 65% 30.17 in 10.0 mi NE 8.1 mph 17.3 mph N/A   Mostly Cloudy
4:54 AM 68.0 °F 57.0 °F 68% 30.16 in 10.0 mi NE 9.2 mph - N/A   Mostly Cloudy
5:54 AM 68.0 °F 57.0 °F 68% 30.18 in 10.0 mi NE 9.2 mph - N/A   Overcast
6:54 AM 66.9 °F 57.9 °F 73% 30.21 in 10.0 mi NE 11.5 mph - N/A   Overcast
7:54 AM 66.9 °F 57.9 °F 73% 30.22 in 10.0 mi NE 10.4 mph - N/A   Overcast
8:54 AM 68.0 °F 57.9 °F 70% 30.26 in 10.0 mi NE 11.5 mph - N/A   Mostly Cloudy
9:54 AM 68.0 °F 57.0 °F 68% 30.27 in 10.0 mi ENE 10.4 mph - N/A   Overcast
10:54 AM 71.1 °F 55.0 °F 57% 30.28 in 10.0 mi ENE 12.7 mph 19.6 mph N/A   Overcast
11:54 AM 73.9 °F 55.0 °F 52% 30.27 in 10.0 mi NE 9.2 mph - N/A   Mostly Cloudy
12:54 PM 78.1 °F 52.0 °F 40% 30.26 in 10.0 mi ENE 8.1 mph 18.4 mph N/A   Clear
1:54 PM 79.0 °F 51.1 °F 38% 30.24 in 10.0 mi NE 9.2 mph 18.4 mph N/A   Clear
2:54 PM 79.0 °F 48.9 °F 35% 30.22 in 10.0 mi East 12.7 mph 18.4 mph N/A   Clear
3:52 PM 80.6 °F 50.0 °F 34% 30.21 in 10.0 mi NE 8.1 mph - N/A   Clear
3:54 PM 80.1 °F 50.0 °F 35% 30.20 in 10.0 mi NNE 9.2 mph - N/A   Clear
4:54 PM 79.0 °F 51.1 °F 38% 30.20 in 10.0 mi ENE 8.1 mph - N/A   Partly Cloudy
5:54 PM 77.0 °F 52.0 °F 42% 30.20 in 10.0 mi NNE 11.5 mph 17.3 mph N/A   Partly Cloudy
6:54 PM 73.0 °F 54.0 °F 51% 30.20 in 10.0 mi ENE 6.9 mph - N/A   Clear
7:54 PM 69.1 °F 55.0 °F 61% 30.20 in 10.0 mi NE 4.6 mph - N/A   Clear
8:54 PM 69.1 °F 55.0 °F 61% 30.23 in 10.0 mi NE 5.8 mph - N/A   Scattered Clouds
9:54 PM 68.0 °F 55.0 °F 63% 30.24 in 10.0 mi ENE 6.9 mph - N/A   Clear
10:54 PM 66.0 °F 55.9 °F 70% 30.25 in 10.0 mi ENE 5.8 mph - N/A   Clear
11:54 PM 64.9 °F 55.0 °F 70% 30.26 in 10.0 mi East 9.2 mph - N/A   Clear